Impacts TAF Board
For situational awareness. Not to be used for flight planning purposes.
IDs:

KPIT - Pittsburgh Intl, PA, US

Issued at 1833 UTC 02 Oct 2022
Updated at 1858 UTC 02 Oct 2022
Potential Impact None Slight Moderate High
Time<<03/19Z 03/20Z 03/21Z 03/22Z 03/23Z 04/00Z 04/01Z 04/02Z 04/03Z 04/04Z 04/05Z 04/06Z 04/07Z
Type PRVL PRVL PRVL PRVL PRVL
VIS >6 >6 >6 >6 >6
CIG -- -- -- -- --
Cover SKC SKC SKC SKC SKC
FltCat VFR VFR VFR VFR VFR
WX -- -- -- -- --
WDir 20 20 20 20 20
WSpd 5 5 5 5 5
WGst -- -- -- -- --
WSHgt -- -- -- -- --
WSDir -- -- -- -- --
WSSpd -- -- -- -- --
Raw TAF
KPIT 021833Z 0219/0324 03010KT P6SM BKN035
  FM022300 02005KT P6SM SKC


METAR Board
Radar Display
Forecast Discussion
For situational awareness. Not to be used for flight planning purposes.